Weather History for KVLL - April, 2013

Change the Weather History Date:

Tuesday, April 2, 2013

  Actual Average (KDET) Record (KDET)
Temperature  
Mean Temperature 32 °F -  
Max Temperature 40 °F 50 °F - (-1)
Min Temperature 25 °F 35 °F - (-1)
Degree Days  
Heating Degree Days 32    
Moisture  
Dew Point 12 °F    
Average Humidity 46    
Maximum Humidity 74    
Minimum Humidity 29    
Precipitation  
Precipitation 0.00 in - - ()
Sea Level Pressure  
Sea Level Pressure 30.15 in    
Wind  
Wind Speed 9 mph (WNW)    
Max Wind Speed 20 mph    
Max Gust Speed 26 mph    
Visibility 10 miles    
Events      
Averages and records for this station are not official NWS values.
T = Trace of Precipitation, MM = Missing Value Source: NWS Daily Summary

Daily Weather History Graph

Daily Weather History Graph

Search for Another Location

Airport or City:

Trip Planner

Search our weather history database for the weather conditions in past years. The results will help you decide how hot, cold, wet, or windy it might be!

Date:

Astronomy

Apr. 02, 2013 Rise Set
Actual Time 7:12 AM EDT 8:00 PM EDT
Civil Twilight 6:44 AM EDT 8:28 PM EDT
Nautical Twilight 6:10 AM EDT 9:02 PM EDT
Astronomical Twilight 5:35 AM EDT 9:37 PM EDT
Moon 2:09 AM EDT (4/2) 11:57 AM EDT (4/2)
Length of Visible Light 13h 44m
Length of Day
12h 47m
Waning Gibbous, 56% of the Moon is Illuminated
Apr 2
Waning Gibbous
Apr 3
Last Quarter
Apr 10
New
Apr 18
First Quarter
Apr 25
Full

Hourly Weather History & Observations

Time (EDT) Temp. Windchill Dew Point Humidity Pressure Visibility Wind Dir Wind Speed Gust Speed Precip Events Conditions
12:15 AM 28.4 °F 19.1 °F 13.1 °F 53% 30.10 in 10.0 mi West 10.4 mph - N/A   Clear
12:35 AM 28.4 °F 21.2 °F 13.6 °F 54% 30.10 in 10.0 mi West 6.9 mph - N/A   Clear
12:55 AM 28.2 °F 19.5 °F 13.8 °F 55% 30.10 in 10.0 mi West 9.2 mph 16.1 mph N/A   Clear
1:15 AM 27.9 °F 22.6 °F 14.0 °F 56% 30.10 in 10.0 mi West 4.6 mph - N/A   Clear
1:35 AM 27.5 °F 21.1 °F 14.0 °F 57% 30.10 in 10.0 mi WSW 5.8 mph - N/A   Clear
1:55 AM 27.3 °F 19.9 °F 14.0 °F 57% 30.10 in 10.0 mi West 6.9 mph - N/A   Clear
2:15 AM 26.8 °F 21.4 °F 14.0 °F 59% 30.10 in 10.0 mi WSW 4.6 mph - N/A   Clear
2:35 AM 26.4 °F 20.9 °F 14.0 °F 59% 30.10 in 10.0 mi WSW 4.6 mph - N/A   Clear
2:54 AM 26.2 °F 22.1 °F 13.8 °F 59% 30.10 in 10.0 mi WSW 3.5 mph - N/A   Scattered Clouds
3:15 AM 25.7 °F 20.1 °F 14.0 °F 61% 30.10 in 10.0 mi WSW 4.6 mph - N/A   Clear
3:34 AM 25.7 °F 19.0 °F 14.0 °F 61% 30.10 in 10.0 mi West 5.8 mph - N/A   Clear
3:55 AM 25.7 °F 20.1 °F 14.0 °F 61% 30.10 in 10.0 mi WSW 4.6 mph - N/A   Clear
4:15 AM 25.5 °F 18.7 °F 14.2 °F 62% 30.10 in 10.0 mi West 5.8 mph - N/A   Clear
4:34 AM 25.7 °F 20.1 °F 14.9 °F 64% 30.10 in 10.0 mi West 4.6 mph - N/A   Clear
4:55 AM 26.1 °F 20.5 °F 15.4 °F 64% 30.11 in 10.0 mi West 4.6 mph - N/A   Clear
5:15 AM 25.7 °F 20.1 °F 15.8 °F 66% 30.10 in 10.0 mi West 4.6 mph - N/A   Clear
5:35 AM 25.7 °F 20.1 °F 16.3 °F 68% 30.11 in 10.0 mi West 4.6 mph - N/A   Clear
5:55 AM 25.5 °F 21.3 °F 16.7 °F 69% 30.11 in 10.0 mi West 3.5 mph - N/A   Clear
6:15 AM 25.7 °F 18.0 °F 17.2 °F 70% 30.12 in 10.0 mi West 6.9 mph - N/A   Clear
6:35 AM 25.5 °F 16.9 °F 17.4 °F 71% 30.13 in 10.0 mi WNW 8.1 mph - N/A   Clear
6:55 AM 25.3 °F 18.5 °F 17.6 °F 72% 30.13 in 10.0 mi WNW 5.8 mph - N/A   Clear
7:15 AM 25.0 °F 16.3 °F 17.6 °F 74% 30.14 in 10.0 mi WNW 8.1 mph - N/A   Clear
7:35 AM 25.2 °F 16.5 °F 18.0 °F 74% 30.15 in 10.0 mi WNW 8.1 mph - N/A   Clear
7:55 AM 25.3 °F 16.7 °F 18.1 °F 74% 30.17 in 10.0 mi WNW 8.1 mph - N/A   Clear
8:14 AM 25.7 °F 17.1 °F 17.6 °F 71% 30.17 in 10.0 mi West 8.1 mph - N/A   Clear
8:35 AM 26.6 °F 20.0 °F 17.2 °F 68% 30.17 in 10.0 mi WNW 5.8 mph - N/A   Clear
8:55 AM 27.3 °F 20.9 °F 15.6 °F 61% 30.17 in 10.0 mi WNW 5.8 mph - N/A   Clear
9:15 AM 28.6 °F 21.5 °F 13.6 °F 54% 30.17 in 10.0 mi West 6.9 mph - N/A   Clear
9:35 AM 29.7 °F 22.8 °F 12.6 °F 49% 30.17 in 10.0 mi West 6.9 mph - N/A   Clear
9:55 AM 30.9 °F 22.2 °F 12.6 °F 47% 30.17 in 10.0 mi West 10.4 mph - N/A   Clear
10:35 AM 32.5 °F 21.5 °F 11.3 °F 41% 30.17 in 10.0 mi West 17.3 mph 21.9 mph N/A   Clear
10:55 AM 33.6 °F 23.7 °F 10.8 °F 39% 30.17 in 10.0 mi West 15.0 mph 20.7 mph N/A   Scattered Clouds
11:15 AM 33.4 °F 22.3 °F 9.9 °F 37% 30.17 in 10.0 mi West 18.4 mph 21.9 mph N/A   Mostly Cloudy
11:35 AM 34.2 °F 23.6 °F 10.2 °F 37% 30.17 in 10.0 mi West 17.3 mph 25.3 mph N/A   Mostly Cloudy
11:55 AM 35.6 °F 27.5 °F 10.4 °F 35% 30.17 in 10.0 mi West 11.5 mph 23.0 mph N/A   Mostly Cloudy
12:15 PM 35.1 °F 26.4 °F 10.6 °F 36% 30.17 in 10.0 mi WNW 12.7 mph 18.4 mph N/A   Mostly Cloudy
12:35 PM 36.3 °F 26.4 °F 10.9 °F 35% 30.17 in 10.0 mi WNW 17.3 mph 25.3 mph N/A   Mostly Cloudy
12:54 PM 36.5 °F 29.7 °F 11.1 °F 35% 30.17 in 10.0 mi West 9.2 mph 23.0 mph N/A   Mostly Cloudy
1:15 PM 37.4 °F 27.8 °F 11.3 °F 34% 30.16 in 10.0 mi West 17.3 mph 25.3 mph N/A   Mostly Cloudy
1:35 PM 37.2 °F 28.7 °F 11.1 °F 34% 30.16 in 10.0 mi WSW 13.8 mph 24.2 mph N/A   Overcast
1:54 PM 38.8 °F 30.8 °F 11.7 °F 33% 30.15 in 10.0 mi West 13.8 mph 23.0 mph N/A   Overcast
2:15 PM 37.4 °F 28.5 °F 11.3 °F 34% 30.15 in 10.0 mi WNW 15.0 mph 21.9 mph N/A   Mostly Cloudy
2:34 PM 37.9 °F 30.5 °F 10.8 °F 33% 30.15 in 10.0 mi West 11.5 mph 21.9 mph N/A   Mostly Cloudy
2:55 PM 39.6 °F 32.1 °F 10.0 °F 30% 30.14 in 10.0 mi WNW 12.7 mph 20.7 mph N/A   Mostly Cloudy
3:15 PM 38.1 °F 30.7 °F 10.2 °F 32% 30.14 in 10.0 mi NW 11.5 mph 26.5 mph N/A   Mostly Cloudy
3:34 PM 39.9 °F 31.8 °F 10.8 °F 30% 30.13 in 10.0 mi West 15.0 mph 21.9 mph N/A   Mostly Cloudy
3:55 PM 40.5 °F 31.2 °F 10.2 °F 29% 30.13 in 10.0 mi NW 19.6 mph 24.2 mph N/A   Mostly Cloudy
4:15 PM 39.2 °F 31.6 °F 10.4 °F 31% 30.13 in 10.0 mi NW 12.7 mph - N/A   Mostly Cloudy
4:35 PM 39.2 °F 30.5 °F 9.5 °F 29% 30.13 in 10.0 mi WNW 16.1 mph 19.6 mph N/A   Mostly Cloudy
4:55 PM 39.4 °F 30.4 °F 10.9 °F 31% 30.13 in 10.0 mi WNW 17.3 mph 24.2 mph N/A   Mostly Cloudy
5:15 PM 39.0 °F 31.0 °F 10.8 °F 31% 30.13 in 10.0 mi NW 13.8 mph 19.6 mph N/A   Mostly Cloudy
5:35 PM 38.7 °F 31.8 °F 11.8 °F 33% 30.14 in 10.0 mi WNW 10.4 mph 23.0 mph N/A   Overcast
5:48 PM 38.8 °F 30.4 °F 11.5 °F 33% 30.15 in 10.0 mi NW 15.0 mph 21.9 mph N/A   Mostly Cloudy
6:21 PM 39.0 °F 30.6 °F 10.6 °F 31% 30.15 in 10.0 mi West 15.0 mph 23.0 mph N/A   Mostly Cloudy
6:35 PM 38.7 °F 32.4 °F 10.0 °F 31% 30.15 in 10.0 mi West 9.2 mph 21.9 mph N/A   Mostly Cloudy
6:55 PM 38.3 °F 30.5 °F 10.4 °F 32% 30.16 in 10.0 mi WNW 12.7 mph 19.6 mph N/A   Scattered Clouds
7:15 PM 38.5 °F 29.9 °F 9.5 °F 30% 30.16 in 10.0 mi WNW 15.0 mph 18.4 mph N/A   Mostly Cloudy
7:35 PM 38.1 °F 29.1 °F 9.5 °F 31% 30.17 in 10.0 mi WNW 16.1 mph - N/A   Mostly Cloudy
7:55 PM 37.4 °F 28.9 °F 10.2 °F 33% 30.18 in 10.0 mi NW 13.8 mph 20.7 mph N/A   Mostly Cloudy
8:15 PM 36.5 °F 28.7 °F 10.0 °F 34% 30.18 in 10.0 mi NW 11.5 mph - N/A   Scattered Clouds
8:35 PM 36.1 °F 28.2 °F 10.0 °F 34% 30.19 in 10.0 mi WNW 11.5 mph 16.1 mph N/A   Scattered Clouds
8:54 PM 35.6 °F 29.2 °F 10.2 °F 35% 30.19 in 10.0 mi WNW 8.1 mph - N/A   Clear
9:15 PM 35.2 °F 28.8 °F 10.2 °F 35% 30.20 in 10.0 mi NW 8.1 mph - N/A   Clear
9:35 PM 34.7 °F 27.5 °F 10.2 °F 36% 30.22 in 10.0 mi WNW 9.2 mph - N/A   Clear
9:54 PM 34.7 °F 26.9 °F 9.7 °F 35% 30.22 in 10.0 mi WNW 10.4 mph 19.6 mph N/A   Clear
10:15 PM 34.0 °F 26.0 °F 9.1 °F 36% 30.23 in 10.0 mi NW 10.4 mph 19.6 mph N/A   Clear
10:34 PM 33.4 °F 25.9 °F 9.1 °F 36% 30.24 in 10.0 mi NW 9.2 mph 16.1 mph N/A   Clear
10:55 PM 32.9 °F 25.3 °F 9.1 °F 37% 30.24 in 10.0 mi NW 9.2 mph - N/A   Clear
11:15 PM 32.5 °F 25.5 °F 9.3 °F 38% 30.25 in 10.0 mi NW 8.1 mph - N/A   Clear
11:34 PM 32.0 °F 25.6 °F 9.5 °F 39% 30.25 in 10.0 mi NW 6.9 mph - N/A   Clear
11:55 PM 32.0 °F 27.5 °F 9.5 °F 39% 30.25 in 10.0 mi NW 4.6 mph - N/A   Clear